SAZMSABE

Guest
Details From SAZM - Mar Del Plata Brig Gen D Bartolome
To SABE - Aeroparque Jorge Newbery
Flight Number -
Tags decoded
Created
Modified
Stats Distance 210 nm / 389 km
Max Altitude 0 ft / 0 m
Waypoints 4
Social Downloads 17
Likes 0
Share VATSIM

Download

Looking for another format? Having issues loading an existing format? Contact us
Advertisement - Login to hide

Notes

Requested: SAZM PULPA UW31 TENIL SABE Unmatched points: UW31

Route

SAZM PULPA TENIL SABE

ID Type Via Altitude Latitude Longitude Leg Dist Tot Dist Heading (true) Name
O SAZM APT - 0 ft / 0 m -37.93419˚ -57.57340˚ - 0 nm - Mar Del Plata Brig Gen D Bartolome
PULPA FIX - 0 ft / 0 m -37.01667˚ -57.67861˚ 55 nm 55 nm 355° / 355° -
TENIL FIX - 0 ft / 0 m -35.54111˚ -57.83389˚ 88 nm 144 nm 355° / 355° -
O SABE APT - 0 ft / 0 m -34.55941˚ -58.41575˚ 65 nm 209 nm 334° / 334° Aeroparque Jorge Newbery

Altitude Profile

Advertisement - Login to hide

Weather


0- 5 10 15 20 25 30 35+ Temperature / ° C

Clouds and Precipitation
Forecast for 2018-05-26 06:00 UTC. Updated 3 hours ago

Ground ~20,000 ft ~40,000 ft Winds

SAZM

Details ICAO SAZM (MDQ)
Name Mar Del Plata Brig Gen D Bartolome
Region Argentina
Timezone America/Argentina/Buenos_Aires (UTC-3.0)
Stats Elevation 71 ft / 22 m (AMSL)
Location -37.934190° -57.573395°
Runways 1
Magnetic Variation 7.646° W

METAR

SAZM 260800Z 34005KT CAVOK 07/06 Q1016

Decode

TAF

TAF SAZM 260500Z 2606/2706 34010KT CAVOK TX19/2618Z TN06/2610Z BECMG 2612/2614 34015G25KT BECMG 2619/2621 34010KT

Decode

Departure Runways

ID Width Length Bearing (true) Bearing (mag) Surface Threshold Offset Overrun Length
13 197 ft / 60 m 7,204 ft / 2,196 m 122.66° 130.31° Asphalt 0 ft / 0 m 196 ft / 60 m
31 197 ft / 60 m 7,204 ft / 2,196 m 302.65° 310.30° Asphalt 0 ft / 0 m 0 ft / 0 m

SABE

Details ICAO SABE (AEP)
Name Aeroparque Jorge Newbery
Region Argentina
Timezone Unknown (UTC+0.0)
Stats Elevation 17 ft / 5 m (AMSL)
Location -34.559414° -58.415749°
Runways 1
Magnetic Variation 9.055° W

METAR

SABE 260800Z 35011KT CAVOK 14/10 Q1017 NOSIG

Decode

TAF

TAF SABE 260500Z 2606/2706 02010KT CAVOK TX20/2618Z TN13/2610Z

Decode

Destination Runways

ID Width Length Bearing (true) Bearing (mag) Surface Threshold Offset Overrun Length
13 131 ft / 40 m 6,882 ft / 2,098 m 123.87° 132.92° Concrete 0 ft / 0 m 791 ft / 241 m
31 131 ft / 40 m 6,882 ft / 2,098 m 303.86° 312.91° Concrete 991 ft / 302 m 0 ft / 0 m

Approach Navaids

Runway Type Ident Frequency Range Bearing (true) Bearing (mag) Slope Elevation
13 Localiser AE 109.50 MHz 18 nm / 33 km 123.95° 133.01° - 17 ft / 5 m (AMSL)
13 Glidescope AE 109.50 MHz 10 nm / 19 km 124.47° 133.52° 3.00° 17 ft / 5 m (AMSL)
13 DME AE 109.50 MHz 18 nm / 33 km - - - 17 ft / 5 m (AMSL)

Popular Alternatives